星链-5622 (STARLINK-5622 )

导读 | 星芒AI

STARLINK-5622 是 SpaceX Starlink 项目中的一颗低轨通信卫星,属于第二代 Starlink 卫星星座的一部分。该卫星于2023年发射,旨在为全球用户提供高速、低延迟的互联网服务。它运行在约550公里高的近地轨道,采用先进推进系统和激光通信技术,提升网络效率与稳定性。Starlink 项目致力于构建覆盖全球的宽带网络,尤其服务于偏远和网络基础设施薄弱地区。

基本信息
目录编号:
55358
目录名称:
STARLINK-5622
国际标识:
2023-013AD
轨道中心:
EARTH
卫星名称:
星链-5622
卫星全名:
星链-5622 (STARLINK-5622 )
卫星状态:
在轨 (已飞行1060 天)
发射日期:
2023-01-26 UTC
国别 :
美国 (US)
星等 :
--
轨道信息
数据来源 国际轨道数据 AOE轨道数据
星历时间 2025-12-21T09:17:23+0800
13小时前
查看轨道信息
2025-12-16T07:00:00+0800
5天前
查看轨道信息
半长轴 6937.219km 6937.191km
偏心率 0.0001311 0.0001271
轨道倾角 43.005° 43.004°
近地点辐角 263.981° 250.732°
升交点赤经 7.348° 35.038°
平近点角 96.088° 236.003°
近地点 558.172km 558.174km
远地点 559.992km 559.938km
周期 95.838分钟 95.837分钟
每日圈数 15.025355 15.025444
详细信息
固有亮度:
5
最大亮度:
2.5
卫星平台:
Starlink v1.5
覆盖范围:
全球
运营商:
太空探索技术公司
运营商所在国:
美国
制造商(研发单位):
太空探索技术公司
制造商所在国:
美国
使用方式:
暂无
卫星简介
星链(Starlink)计划是由太空探索技术公司(SpaceX)提出的一个巨型低轨卫星互联网星座项目,计划在2019年至2024年间在太空搭建由约1.2万颗卫星组成的“星链”网络,其中1584颗将部署在地球上空550千米处的近地轨道,并从2020年开始工作。该卫星仍在工作。
2D轨道图
3D轨道图
轨道高度分析图
轨道倾角分析图
轨道综合分析图
查看轨道综合分析图